TimeEST,TemperatureF,Dew PointF,Humidity,Sea Level PressureIn,VisibilityMPH,Wind Direction,Wind SpeedMPH,Gust SpeedMPH,PrecipitationIn,Events,Conditions,WindDirDegrees,DateUTC
12:15 AM,21.2,19.4,93,29.95,10.0,WNW,24.2,38.0,N/A,,Overcast,290,2013-02-09 05:15:00
12:35 AM,21.2,19.4,93,29.95,10.0,WNW,26.5,35.7,N/A,,Overcast,290,2013-02-09 05:35:00
12:55 AM,21.2,19.4,93,29.95,10.0,WNW,25.3,43.7,N/A,,Overcast,300,2013-02-09 05:55:00
1:15 AM,21.2,17.6,86,29.96,10.0,WNW,21.9,40.3,N/A,,Overcast,290,2013-02-09 06:15:00
1:35 AM,19.4,17.6,93,29.97,10.0,WNW,23.0,32.2,N/A,,Overcast,300,2013-02-09 06:35:00
1:55 AM,19.4,15.8,86,29.97,10.0,WNW,19.6,39.1,N/A,,Overcast,300,2013-02-09 06:55:00
2:15 AM,19.4,15.8,86,29.99,10.0,WNW,21.9,33.4,N/A,,Mostly Cloudy,300,2013-02-09 07:15:00
2:35 AM,17.6,14.0,86,29.99,10.0,NW,25.3,36.8,N/A,,Scattered Clouds,310,2013-02-09 07:35:00
2:55 AM,17.6,14.0,86,29.98,10.0,WNW,23.0,34.5,N/A,,Clear,300,2013-02-09 07:55:00
3:15 AM,17.6,12.2,79,29.98,10.0,WNW,25.3,35.7,N/A,,Clear,300,2013-02-09 08:15:00
3:35 AM,17.6,12.2,79,29.98,10.0,NW,25.3,39.1,N/A,,Clear,310,2013-02-09 08:35:00
3:55 AM,17.6,12.2,79,29.98,10.0,WNW,25.3,40.3,N/A,,Clear,300,2013-02-09 08:55:00
4:15 AM,17.6,12.2,79,29.98,10.0,NW,26.5,39.1,N/A,,Clear,310,2013-02-09 09:15:00
4:35 AM,17.6,12.2,79,29.99,10.0,WNW,24.2,41.4,N/A,,Clear,300,2013-02-09 09:35:00
4:55 AM,17.6,12.2,79,29.99,10.0,WNW,25.3,39.1,N/A,,Clear,300,2013-02-09 09:55:00
5:15 AM,17.6,10.4,73,30.01,10.0,WNW,28.8,35.7,N/A,,Clear,300,2013-02-09 10:15:00
5:35 AM,15.8,10.4,79,30.01,10.0,WNW,26.5,42.6,N/A,,Clear,300,2013-02-09 10:35:00
5:55 AM,15.8,10.4,79,30.02,10.0,WNW,28.8,38.0,N/A,,Clear,290,2013-02-09 10:55:00
6:15 AM,15.8,10.4,79,30.02,10.0,WNW,28.8,39.1,N/A,,Clear,290,2013-02-09 11:15:00
6:35 AM,15.8,10.4,79,30.03,10.0,WNW,23.0,38.0,N/A,,Clear,300,2013-02-09 11:35:00
6:55 AM,15.8,10.4,79,30.04,10.0,WNW,27.6,38.0,N/A,,Clear,300,2013-02-09 11:55:00
7:15 AM,15.8,10.4,79,30.05,10.0,NW,19.6,32.2,N/A,,Clear,310,2013-02-09 12:15:00
7:35 AM,15.8,10.4,79,30.06,10.0,NW,23.0,36.8,N/A,,Clear,320,2013-02-09 12:35:00
7:55 AM,15.8,10.4,79,30.07,10.0,WNW,21.9,34.5,N/A,,Clear,290,2013-02-09 12:55:00
8:15 AM,15.8,10.4,79,30.09,10.0,WNW,23.0,32.2,N/A,,Clear,290,2013-02-09 13:15:00
8:35 AM,15.8,10.4,79,30.09,10.0,WNW,24.2,35.7,N/A,,Clear,290,2013-02-09 13:35:00
8:55 AM,17.6,12.2,79,30.10,10.0,WNW,21.9,29.9,N/A,,Clear,290,2013-02-09 13:55:00
9:15 AM,17.6,12.2,79,30.12,10.0,WNW,19.6,28.8,N/A,,Clear,300,2013-02-09 14:15:00
9:35 AM,19.4,12.2,74,30.13,10.0,WNW,17.3,25.3,N/A,,Clear,300,2013-02-09 14:35:00
9:55 AM,19.4,12.2,74,30.14,10.0,WNW,16.1,21.9,N/A,,Clear,290,2013-02-09 14:55:00
10:15 AM,21.2,12.2,68,30.14,10.0,West,18.4,26.5,N/A,,Clear,280,2013-02-09 15:15:00
10:35 AM,21.2,12.2,68,30.15,10.0,NW,17.3,23.0,N/A,,Clear,320,2013-02-09 15:35:00
10:55 AM,23.0,12.2,63,30.16,10.0,WNW,13.8,20.7,N/A,,Clear,300,2013-02-09 15:55:00
11:15 AM,24.8,12.2,59,30.17,10.0,WNW,12.7,23.0,N/A,,Clear,300,2013-02-09 16:15:00
11:35 AM,26.6,12.2,55,30.18,10.0,WNW,9.2,-,N/A,,Clear,300,2013-02-09 16:35:00
11:55 AM,26.6,12.2,55,30.19,10.0,NW,12.7,17.3,N/A,,Clear,320,2013-02-09 16:55:00
12:15 PM,28.4,12.2,51,30.19,10.0,NW,10.4,-,N/A,,Clear,320,2013-02-09 17:15:00
12:35 PM,28.4,12.2,51,30.18,10.0,NW,9.2,-,N/A,,Clear,320,2013-02-09 17:35:00
12:55 PM,28.4,10.4,47,30.19,10.0,WNW,12.7,-,N/A,,Clear,290,2013-02-09 17:55:00
1:15 PM,30.2,10.4,44,30.19,10.0,WNW,11.5,-,N/A,,Clear,290,2013-02-09 18:15:00
1:35 PM,30.2,10.4,44,30.19,10.0,NW,12.7,-,N/A,,Clear,310,2013-02-09 18:35:00
1:55 PM,32.0,10.4,41,30.19,10.0,WNW,11.5,16.1,N/A,,Clear,290,2013-02-09 18:55:00
2:15 PM,33.8,10.4,38,30.19,10.0,WNW,8.1,16.1,N/A,,Clear,300,2013-02-09 19:15:00
2:35 PM,33.8,8.6,35,30.19,10.0,NW,9.2,-,N/A,,Clear,310,2013-02-09 19:35:00
2:55 PM,33.8,8.6,35,30.20,10.0,WNW,9.2,-,N/A,,Clear,300,2013-02-09 19:55:00
3:15 PM,33.8,10.4,38,30.20,10.0,West,10.4,-,N/A,,Clear,280,2013-02-09 20:15:00
3:35 PM,33.8,8.6,35,30.21,10.0,West,11.5,-,N/A,,Clear,280,2013-02-09 20:35:00
3:55 PM,33.8,8.6,35,30.22,10.0,WNW,12.7,-,N/A,,Clear,290,2013-02-09 20:55:00
4:15 PM,33.8,6.8,32,30.23,10.0,WNW,11.5,17.3,N/A,,Clear,300,2013-02-09 21:15:00
4:35 PM,33.8,8.6,35,30.23,10.0,NW,9.2,-,N/A,,Clear,310,2013-02-09 21:35:00
4:55 PM,33.8,6.8,32,30.23,10.0,WNW,10.4,16.1,N/A,,Clear,290,2013-02-09 21:55:00
5:15 PM,33.8,6.8,32,30.23,10.0,WNW,9.2,-,N/A,,Clear,300,2013-02-09 22:15:00
5:35 PM,32.0,6.8,35,30.24,10.0,WNW,6.9,-,N/A,,Clear,290,2013-02-09 22:35:00
5:55 PM,30.2,6.8,37,30.24,10.0,NW,9.2,-,N/A,,Clear,320,2013-02-09 22:55:00
6:15 PM,30.2,6.8,37,30.25,10.0,NW,9.2,-,N/A,,Clear,310,2013-02-09 23:15:00
6:35 PM,30.2,8.6,40,30.25,10.0,NW,10.4,-,N/A,,Clear,310,2013-02-09 23:35:00
6:55 PM,30.2,8.6,40,30.25,10.0,WNW,9.2,-,N/A,,Clear,300,2013-02-09 23:55:00
7:15 PM,28.4,8.6,43,30.26,10.0,WNW,8.1,-,N/A,,Clear,300,2013-02-10 00:15:00
7:35 PM,28.4,10.4,47,30.27,10.0,WNW,10.4,-,N/A,,Clear,290,2013-02-10 00:35:00
7:55 PM,28.4,10.4,47,30.27,10.0,West,5.8,-,N/A,,Clear,270,2013-02-10 00:55:00
8:15 PM,28.4,10.4,47,30.27,10.0,WNW,5.8,-,N/A,,Clear,290,2013-02-10 01:15:00
8:35 PM,28.4,10.4,47,30.27,10.0,WNW,6.9,-,N/A,,Clear,290,2013-02-10 01:35:00
8:55 PM,28.4,10.4,47,30.27,10.0,WNW,3.5,-,N/A,,Clear,290,2013-02-10 01:55:00
9:15 PM,26.6,10.4,51,30.28,10.0,West,4.6,-,N/A,,Clear,270,2013-02-10 02:15:00
9:35 PM,24.8,10.4,54,30.28,10.0,West,5.8,-,N/A,,Clear,270,2013-02-10 02:35:00
9:55 PM,24.8,10.4,54,30.28,10.0,West,4.6,-,N/A,,Clear,270,2013-02-10 02:55:00
10:15 PM,26.6,10.4,51,30.28,10.0,WSW,4.6,-,N/A,,Clear,250,2013-02-10 03:15:00
10:35 PM,26.6,10.4,51,30.27,10.0,West,5.8,-,N/A,,Clear,260,2013-02-10 03:35:00
10:55 PM,28.4,10.4,47,30.27,10.0,West,5.8,-,N/A,,Clear,260,2013-02-10 03:55:00
11:15 PM,26.6,10.4,51,30.27,10.0,WSW,5.8,-,N/A,,Clear,250,2013-02-10 04:15:00
11:35 PM,30.2,3.2,32,30.27,10.0,South,4.6,-,N/A,,Clear,180,2013-02-10 04:35:00
11:55 PM,32.0,-5.8,20,30.27,10.0,South,4.6,-,N/A,,Clear,180,2013-02-10 04:55:00